Location: Holtzwihr
(48.1128°N, 7.4205°E)
Time: 00:36:48
(UTC+00:00)

Daily predictions for brighter satellites

Satellite Brightness Start Highest point End
(mag) Time Altitude Azimuth Time Altitude Azimuth Time Altitude Azimuth
Cosmos 2369 Rocket 4.4 02:52:23 20° E 02:52:23 20° E 02:55:58 10° NE
USA 215 4.3 02:55:02 10° E 02:59:29 38° NE 02:59:29 38° NE
Cosmos 1943 Rocket 4.1 03:12:50 23° NE 03:12:50 23° NE 03:14:56 10° NE
CENTAUR R/B 2.9 03:44:24 59° NNE 03:44:24 59° NNE 03:50:20 10° NE
Cosmos 2278 Rocket 4.5 03:51:48 13° N 03:51:48 13° N 03:52:28 10° N
NOSS 3-2 (A) 4.0 04:04:16 45° N 04:04:16 45° N 04:09:34 10° NE
Cosmos 1151 Rocket 4.2 04:05:31 39° SE 04:05:31 39° SE 04:08:32 10° SSE
Cosmos 1486 Rocket 4.4 04:03:40 50° SSE 04:04:43 61° ESE 04:09:55 10° NNE
SL-8 R/B 4.5 04:07:03 47° SE 04:07:03 47° SE 04:10:32 10° ESE
DNEPR-1 R/B 4.0 04:11:35 71° SE 04:11:35 71° SE 04:16:38 10° SE
NOSS 3-2 (C) 3.3 04:12:49 68° NNW 04:12:49 68° NNW 04:19:07 10° NE
Cosmos 1833 4.3 04:15:44 53° N 04:17:04 73° ENE 04:22:48 10° SE
Meteor 2-3 Rocket 4.5 04:20:25 38° N 04:20:25 38° N 04:24:01 10° N
Cosmos 1766 Rocket 4.1 04:16:41 10° S 04:20:55 55° E 04:25:09 10° NNE
BREEZE-M DEB (TANK) 3.7 04:21:03 46° SSW 04:21:09 46° SSW 04:31:53 10° SE
SL-27 R/B 4.3 04:21:23 29° ENE 04:21:28 29° ENE 04:24:35 10° ESE
Envisat 3.6 04:18:44 10° NNE 04:23:45 56° E 04:28:44 10° S
Cosmos 968 Rocket 4.2 04:27:18 38° N 04:27:18 38° N 04:30:36 10° NNE
Cosmos 1328 Rocket 3.9 04:25:33 53° NNE 04:26:18 63° ENE 04:30:36 10° SSE
Cosmos 2263 4.3 04:24:35 20° SSW 04:28:36 78° ESE 04:34:22 10° NNE
Cosmos 2297 Rocket 4.4 04:25:50 10° N 04:29:42 18° NE 04:33:34 10° E
Cosmos 2098 Rocket 3.1 04:32:19 38° S 04:34:00 90° E 04:39:21 10° N
Cosmos 2369 Rocket 2.0 04:34:16 54° WSW 04:35:28 72° WNW 04:41:06 10° NNE
Meteor 1-10 Rocket 4.4 04:30:28 11° N 04:35:49 68° ENE 04:41:20 10° SSE
Cosmos 2344 3.8 04:34:44 42° WNW 04:36:13 47° NNW 04:44:07 10° NE
Cosmos 2142 Rocket 4.4 04:31:05 10° N 04:37:28 86° W 04:43:51 10° S
SL-19 R/B 4.1 04:33:53 10° S 04:39:25 68° WSW 04:41:27 40° NW
USA 238 DEB 3.8 04:39:34 46° WNW 04:40:42 50° NW 04:47:28 10° NE
USA 238 3.8 04:39:39 46° WNW 04:40:48 50° NW 04:47:34 10° NE
Cosmos 1656 Rocket 3.5 04:37:55 25° SSW 04:41:13 86° WNW 04:46:42 10° NNE
Cosmos 2279 Rocket 3.8 04:35:37 10° N 04:41:50 84° W 04:48:02 10° S
COSMO-SKYMED 1 2.4 04:37:36 10° SSE 04:41:57 88° WSW 04:42:51 56° NNW
USA 215 3.2 04:37:15 10° ESE 04:43:48 81° NNE 04:46:50 35° NW
H-2A R/B 3.9 04:40:09 10° NNE 04:46:53 16° SSW 04:47:40 10° SSW
Meteor 1-31 Rocket 3.2 04:40:35 10° NNE 04:44:28 63° ESE 04:48:20 10° S
Helios 1B 4.4 04:45:22 10° S 04:49:41 70° WSW 04:50:20 59° NW
CBERS 1 LM4 rocket 4.5 04:47:46 10° NNE 04:52:40 80° ESE 04:57:43 10° SSW
Cosmos 1408 Rocket 4.1 04:49:11 10° S 04:53:23 57° E 04:57:37 10° NNE
CZ-4B R/B 4.4 04:51:57 10° E 04:53:26 13° ENE 04:54:54 10° NE
Cosmos 1943 Rocket 3.2 04:54:24 28° NNW 04:54:24 28° NNW 04:58:25 10° NNE
CZ-4B R/B 4.1 04:49:01 10° NNE 04:53:31 83° ESE 04:57:59 10° SSW
CZ-2C R/B 2.5 04:48:06 10° S 04:53:34 71° WSW 04:57:37 18° NNW
Kosmos-917 4.4 04:57:03 42° NNW 04:57:03 42° NNW 05:02:00 10° NE
Cosmos 1354 Rocket 4.0 04:54:22 10° SSW 04:59:38 86° ESE 05:04:59 10° NNE
Cosmos 1634 Rocket 4.3 04:58:14 28° NW 05:00:47 40° W 05:06:31 10° SSW
Meteor 2-15 4.3 04:57:02 10° N 05:03:08 85° W 05:09:11 10° S
Cosmos 2227 Rocket 4.2 05:01:24 10° N 05:05:48 22° NE 05:10:10 10° E
Cosmos 1862 3.9 05:07:19 36° NNW 05:07:19 36° NNW 05:10:03 10° N
Landsat 5 3.6 05:05:24 10° S 05:09:52 61° WSW 05:12:32 23° NNW
Cosmos 1515 Rocket 3.4 05:06:34 14° N 05:10:18 83° W 05:14:38 10° S
SJ 16-02 2.0 05:08:24 10° S 05:12:40 55° ESE 05:16:58 10° NNE
ADEOS 3.7 05:07:33 10° NNE 05:12:48 76° ESE 05:18:01 10° S
BREEZE-M DEB (TANK) 3.2 05:16:52 38° WNW 05:18:07 74° N 05:26:18 10° E
Meteor 2-19 Rocket 4.4 05:13:21 10° S 05:19:25 89° WNW 05:25:30 10° N
NOAA 11 4.2 05:18:52 10° NNE 05:24:22 86° E 05:29:53 10° SSW
CZ-4C R/B 3.0 05:22:56 10° S 05:25:56 44° W 05:26:28 39° WNW
Cosmos 1538 Rocket 4.2 05:20:45 10° NNW 05:26:01 72° ENE 05:31:12 10° SSE
COSMOS 2487 2.8 05:23:41 17° N 05:26:08 60° ENE 05:29:25 10° SSE
SKYMED 2 4.4 05:26:24 10° SSW 05:30:12 29° W 05:31:28 25° WNW
Cosmos 1500 Rocket 3.7 05:26:26 10° S 05:30:54 82° E 05:35:23 10° N
CZ-2C R/B 3.1 05:27:03 10° NNE 05:31:57 79° ESE 05:37:04 10° S
SMAP 4.2 05:30:14 10° NNE 05:34:44 47° E 05:39:13 10° S
CENTAUR R/B 3.6 05:31:36 21° WNW 05:34:58 31° NNW 05:41:38 10° NE
Sich 1 4.3 05:33:03 10° SSE 05:37:06 43° E 05:41:10 10° NNE
FALCON 9 DEB 3.9 05:37:32 25° NNW 05:38:25 30° N 05:41:03 10° ENE
CZ-4B R/B 2.5 05:36:18 10° NNE 05:39:53 88° ESE 05:43:29 10° SSW
Cosmos 1503 Rocket 4.4 05:34:57 10° SW 05:39:55 41° WNW 05:45:00 10° NNE
H-2A R/B 4.1 05:35:50 10° NE 05:40:06 29° E 05:44:21 10° SSE
ATLAS 5 CENTAUR R/B 1.4 05:36:48 10° SW 05:40:38 82° SE 05:45:01 10° NE
FALCON 9 DEB 3.8 05:40:01 24° NNW 05:41:02 32° N 05:43:39 10° ENE
FALCON 9 DEB 3.7 05:40:11 24° NNW 05:41:14 33° N 05:43:53 10° E
Meteor 1-27 Rocket 3.8 05:35:42 10° NNW 05:41:16 60° W 05:46:54 10° S
Cosmos 1805 Rocket 4.0 05:38:44 10° S 05:43:04 65° E 05:47:25 10° NNE
H-2A R/B 2.0 05:39:33 10° SSE 05:43:51 85° W 05:48:16 10° NNW
Meteor PRIRODA 3.5 05:41:07 10° N 05:44:44 71° WNW 05:48:20 10° SSW
Cosmos 1777 Rocket 3.9 05:41:58 10° SSW 05:47:10 70° WNW 05:52:26 10° NNE
USA 32 4.0 05:43:22 10° N 05:48:37 81° W 05:53:52 10° S
FAST Rocket 4.0 05:47:10 10° SSW 05:49:47 65° WNW 05:53:11 10° N
Lacrosse 4 Rocket 3.5 05:47:38 10° N 05:51:10 22° NE 05:54:42 10° E
Cosmos 1515 3.6 05:49:48 10° NNW 05:53:35 65° W 05:57:21 10° S
Cosmos 1340 Rocket 2.8 05:51:31 10° SSW 05:55:24 56° WNW 05:59:23 10° N
SL-27 R/B 3.8 05:54:53 17° WNW 05:56:20 22° W 05:59:08 10° SSW
Okean O Rocket 4.4 05:54:28 10° NE 05:57:57 22° E 06:01:23 10° SE
Cosmos 2026 Rocket 4.2 05:52:34 10° S 05:58:55 83° E 06:05:13 10° N
Cosmos 923 Rocket 4.5 05:55:55 10° NNW 06:01:16 66° ENE 06:06:34 10° SSE
Envisat 4.0 05:58:26 10° N 06:02:25 23° WNW 06:06:22 10° WSW
Cosmos 2195 Rocket 4.4 05:56:48 10° SSW 06:02:55 81° W 06:09:05 10° N
DMSP B5D2-2 4.5 05:58:29 10° SSW 06:03:24 42° W 06:08:21 10° NNW
NOAA 6 4.2 05:58:24 10° NNE 06:03:32 78° ESE 06:08:39 10° S
ATLAS 3B R/B 2.7 05:57:36 10° SW 06:04:10 88° NW 06:11:07 10° NE
FALCON 9 DEB 3.7 06:03:14 15° NW 06:05:14 33° N 06:07:55 10° ENE
Cosmos 1553 Rocket 4.4 06:02:12 10° N 06:08:16 67° ENE 06:14:20 10° SSE
Meteor 1-25 Rocket 4.2 06:04:47 10° SSW 06:10:24 75° WNW 06:15:59 10° N
Cosmos 158 Rocket 4.2 06:05:26 10° NNW 06:10:25 51° WSW 06:15:29 10° S
Cosmos 1809 Rocket 4.4 06:07:14 10° SSW 06:13:23 77° W 06:19:34 10° N
Cosmos 1939 Rocket 2.9 06:09:49 10° N 06:13:40 54° WNW 06:17:27 10° SSW
PSLV R/B 3.9 06:09:57 10° SSE 06:14:01 89° WSW 06:18:09 10° NNW
Cosmos 1666 3.7 06:10:26 10° S 06:14:05 51° E 06:17:45 10° NNE
Cosmos 2297 Rocket 2.4 06:09:03 10° NNW 06:14:45 76° ENE 06:20:25 10° SSE
FALCON 9 DEB 4.0 06:13:36 11° WNW 06:16:31 36° N 06:19:42 10° ENE
Cosmos 1174 3.7 06:14:50 10° WSW 06:17:38 35° NW 06:20:40 10° NNE
EO 1 Delta rocket 4.3 06:11:15 10° N 06:17:48 80° WNW 06:22:59 10° SSW
Meteor 1-31 Rocket 4.5 06:16:17 10° NNW 06:18:22 14° WNW 06:20:28 10° W
Cosmos 2369 Rocket 3.6 06:16:53 10° W 06:20:33 17° NW 06:24:14 10° N
Cosmos 1607 4.1 06:17:47 10° NW 06:23:58 63° WSW 06:30:00 10° SSE
CZ-4B R/B 1.6 06:21:51 10° S 06:25:03 48° W 06:28:15 10° NNW
Cosmos 1633 Rocket 3.6 06:20:46 10° S 06:25:04 64° E 06:29:22 10° NNE
SL-4 R/B 3.5 06:23:45 10° SSW 06:27:03 36° SE 06:30:35 10° ENE
USA 215 4.1 06:21:16 10° SSE 06:27:12 37° SW 06:33:10 10° WNW
Okean 1 3.6 06:25:27 10° NNW 06:29:16 47° W 06:33:02 10° SSW
Cosmos 2112 Rocket 4.3 06:24:12 10° NNW 06:29:33 73° ENE 06:34:49 10° SSE
